Location: Bad Salzschlirf
(50.3750°N, 9.3000°E)
Time: 06:26:52
(UTC+01:00)

ISS - Pass Details

Date: 13 November 2018
Orbit: 401 x 409 km, 51.6° (Epoch: 21 November)

Event Time Altitude Azimuth Distance (km) Brightness Sun altitude
Exits shadow 05:01:39 20° 147° (SSE) 987 -1.6 -24.1°
Drops below altitude 10° 05:02:56 10° 137° (SE) 1,459 -0.5 -23.9°
Sets 05:05:04 0° 130° (SE) 2,318 0.8 -23.5°
